Simultaneous Nadir Overpasses (SNOs) Predictions

Prediction of SNOs between METOP-A and NOAA-19 Satellite Orbit:

Table of predicted SNOs for the next 14.0 days since TLE Epoch: 11/20/2021
Index Date (METOP-A) Time (METOP-A) Lat,Lon (METOP-A) SZA (METOP-A ) Date (NOAA-19) Time (NOAA-19) Lat,Lon (NOAA-19) SZA (NOAA-19 ) Distance(km) Time Diff (sec)
1 11/21/2021 12:10:01 -79.91, 171.62 80.12 11/21/2021 12:09:10 -79.91, 171.51 80.12 2.01 51
2 11/21/2021 12:59:52 80.00, -20.08 99.97 11/21/2021 13:00:02 80.01, -19.94 99.99 3.02 10
3 11/21/2021 13:50:08 -80.05, 147.85 79.97 11/21/2021 13:51:04 -80.06, 147.93 79.96 1.68 56
4 11/25/2021 11:21:47 -79.90,-176.44 79.32 11/25/2021 11:21:19 -79.90,-176.52 79.31 1.46 28
5 11/25/2021 12:11:45 79.96, -8.35 100.76 11/25/2021 12:12:11 79.98, -8.22 100.77 3.04 26
6 11/29/2021 12:15:54 -79.87, 169.76 78.62 11/29/2021 12:15:29 -79.86, 169.63 78.62 2.80 25
7 11/29/2021 13:05:59 79.93, -22.22 101.45 11/29/2021 13:06:21 79.93, -22.27 101.45 0.99 22
8 12/03/2021 14:52:30 -79.77, 129.79 78.08 12/03/2021 14:51:42 -79.76, 129.65 78.08 2.88 48
9 12/03/2021 15:42:42 79.83, -62.22 101.99 12/03/2021 15:42:33 79.85, -62.10 102.00 2.80 9



Historial Predications of SNOs between METOP-A and NOAA-19
